Flag for Congo Weather past 2 weeks in Pointe-Noire, Congo

Now
81 °F

Passing clouds.


Feels Like: 86 °F
Forecast: 78 / 85 °F
Wind: 9 mph from South

Location: Pointe Airport-Noire

Current Time: Dec 17, 2014 at 9:33:51 PM

Latest Report: Dec 17, 2014 at 9:00 PM


Visibility: N/A

Pressure: 29.89 "Hg

Humidity: 84%

Dew point: 75 °F

Location of Pointe-NoireLocation

Historic Weather in Pointe-Noire — Graph

°F

Pointe-Noire temperature yesterday

Maximum temperature yesterday: 86 °F (at 2:00 PM)
Minimum temperature yesterday: 73 °F (at 2:00 AM)
Average temperature yesterday: 79 °F

Past Weeks' High & Low Weather Summary

 TemperatureHumidityPressure
High88 °F (Dec 13, 11:00 AM)100% (Dec 14, 6:00 AM)29.95 "Hg (Dec 14, 6:00 AM)
Low73 °F (Dec 15, 2:00 PM)16% (Dec 17, 12:00 PM)29.74 "Hg (Dec 10, 4:00 PM)
Average81 °F82%29.84 "Hg
* Reported Dec 2 8:00 PM — Dec 17 8:00 PM, Pointe-Noire, Weather by CustomWeather, © 2014

Note: Actual official high and low records may vary slightly from our data, if they occured in-between our weather recording intervals... More about our weather records

Advertising

Pointe-Noire weather history for previous 24 hours

 ConditionsComfort  
Time TempWeatherWind HumidityBarometerVisibility
8:00 PM
Dec 17
82 °FPassing clouds.10 mph79%29.86 "HgN/A
7:00 PM82 °FPassing clouds.9 mph79%29.83 "HgN/A
6:00 PM82 °FScattered clouds.10 mph79%29.80 "HgN/A
5:00 PM84 °FScattered clouds.13 mph74%29.80 "HgN/A
4:00 PM84 °FPassing clouds.13 mph74%29.80 "HgN/A
3:00 PM84 °FPassing clouds.13 mph74%29.80 "HgN/A
2:00 PM84 °FPassing clouds.14 mph74%29.83 "HgN/A
1:00 PM84 °FScattered clouds.13 mph66%29.86 "HgN/A
12:00 PM84 °FPassing clouds.14 mph16%29.86 "HgN/A
11:00 AM84 °FScattered clouds.12 mph70%29.89 "HgN/A
10:00 AM84 °FScattered clouds.8 mph70%29.89 "HgN/A
9:00 AM82 °FScattered clouds.7 mph79%29.92 "HgN/A
8:00 AM79 °FScattered clouds.7 mph89%29.92 "HgN/A
7:00 AM77 °FScattered clouds.6 mph94%29.89 "Hg5 mi
6:00 AM79 °FLight rain. Broken clouds.3 mph94%N/A4 mi
5:00 AM77 °FLight rain. Partly cloudy.3 mph94%29.86 "Hg4 mi
4:00 AM79 °FPartly cloudy.3 mph94%29.83 "Hg5 mi
3:00 AM79 °FPartly cloudy.3 mph94%29.86 "HgN/A
2:00 AM79 °FPartly cloudy.No wind89%29.86 "HgN/A
1:00 AM81 °FPassing clouds.3 mph84%29.86 "HgN/A
12:00 AM81 °FPassing clouds.3 mph84%29.89 "HgN/A
11:00 PM
Dec 16
81 °FPartly cloudy.3 mph84%29.92 "HgN/A
10:00 PM81 °FPartly cloudy.3 mph84%29.92 "HgN/A
9:00 PM81 °FPassing clouds.6 mph84%29.89 "HgN/A
Weather by CustomWeather, © 2014

See weather overviewHow to use our weather pages